This is the latest recevied weather packets stored in our database for station/object KD0RIH. If no packets are shown the sender has not sent any weather packets the latest 10 day(s).
| Time | Temp. | Humidity | Pressure | Rain* | Wind** | Luminosity | Snow |
|---|---|---|---|---|---|---|---|
| 1777939040 | 25° C | 53% | 1000.8 hPa | 0 mm | - | 83 W/m² | - |
| 1777938736 | 25.56° C | 51% | 1000.8 hPa | 0 mm | - | 75 W/m² | - |
| 1777938433 | 25.56° C | 46% | 1000.8 hPa | 0 mm | - | 72 W/m² | - |
| 1777938130 | 27.22° C | 44% | 1000.9 hPa | 0 mm | - | 81 W/m² | - |
| 1777937826 | 27.22° C | 36% | 1000.8 hPa | 0 mm | - | 46 W/m² | - |
| 1777937522 | 27.22° C | 36% | 1000.8 hPa | 0 mm | - | 62 W/m² | - |
| 1777937220 | 27.78° C | 35% | 1000.8 hPa | 0 mm | - | 70 W/m² | - |
| 1777936917 | 27.78° C | 36% | 1000.5 hPa | 0 mm | - | 98 W/m² | - |
| 1777936613 | 27.78° C | 35% | 1000.5 hPa | 0 mm | - | 115 W/m² | - |
| 1777936310 | 28.33° C | 34% | 1000.9 hPa | 0 mm | - | 124 W/m² | - |
| 1777936006 | 28.33° C | 34% | 1000.8 hPa | 0 mm | - | 160 W/m² | - |
| 1777935705 | 28.89° C | 34% | 1000.8 hPa | 0 mm | - | 90 W/m² | - |
| 1777935403 | 28.89° C | 34% | 1000.6 hPa | 0 mm | - | 181 W/m² | - |
| 1777935098 | 28.89° C | 32% | 1000.6 hPa | 0 mm | - | 273 W/m² | - |
| 1777934796 | 28.89° C | 33% | 1000.8 hPa | 0 mm | - | 289 W/m² | - |
| 1777934492 | 28.89° C | 33% | 1000.5 hPa | 0 mm | - | 310 W/m² | - |
| 1777934190 | 28.89° C | 32% | 1000.6 hPa | 0 mm | - | 287 W/m² | - |
| 1777933885 | 28.89° C | 32% | 1000.8 hPa | 0 mm | - | 345 W/m² | - |
| 1777933583 | 28.89° C | 33% | 1000.9 hPa | 0 mm | - | 360 W/m² | - |
| 1777933280 | 28.89° C | 33% | 1000.8 hPa | 0 mm | - | 378 W/m² | - |
| 1777932977 | 28.89° C | 33% | 1000.8 hPa | 0 mm | - | 399 W/m² | - |
| 1777932674 | 28.89° C | 33% | 1000.8 hPa | 0 mm | - | 421 W/m² | - |
| 1777932370 | 28.33° C | 34% | 1001 hPa | 0 mm | - | 478 W/m² | - |
| 1777932068 | 28.33° C | 35% | 1001 hPa | 0 mm | - | 446 W/m² | - |
| 1777931764 | 28.89° C | 33% | 1001.1 hPa | 0 mm | - | 279 W/m² | - |
* Rain latest hour (hover to see other rain measurements)
** Current wind speed in m/s (hover to see current wind gust speed)